When you browse on this site, cookies collect data to enhance your experience and personalize the content and advertising you see.
Visit our Privacy Policy to learn more. By continuing to use the site, you agree to this use of cookies and data.
  • Em Portugal
  • Lista de países
  • Para 7 dias
  • Temperatura da água
  • Mapas de satélite
  • Mapa do tempo
  • Widgets de tempo
  • user-avatar
    Iniciar Sessão

    Previsão horária em Wavre

    Hoje, 16 Fevereiro, Sábado

    Tempo Temperatura Precipitação Vento Pressão Humidade
    00:00 +5°C° 0 mm 3 m/s 764 mmHg 74%
    01:00 +5°C° 0 mm 3 m/s 764 mmHg 75%
    02:00 +5°C° 0 mm 3 m/s 764 mmHg 77%
    03:00 +5°C° 0 mm 3 m/s 763 mmHg 79%
    04:00 +4°C° 0 mm 3 m/s 763 mmHg 80%
    05:00 +4°C° 0 mm 3 m/s 763 mmHg 82%
    06:00 +4°C° 0 mm 3 m/s 763 mmHg 83%
    07:00 +5°C° 0 mm 4 m/s 763 mmHg 80%
    08:00 +6°C° 0 mm 4 m/s 763 mmHg 76%
    09:00 +7°C° 0 mm 4 m/s 764 mmHg 73%
    10:00 +8°C° 0 mm 4 m/s 764 mmHg 69%
    11:00 +11°C° 0 mm 4 m/s 764 mmHg 65%
    12:00 +12°C° 0 mm 4 m/s 764 mmHg 61%
    13:00 +12°C° 0 mm 3 m/s 763 mmHg 62%
    14:00 +13°C° 0 mm 3 m/s 763 mmHg 62%
    15:00 +13°C° 0 mm 3 m/s 763 mmHg 62%
    16:00 +12°C° 0 mm 3 m/s 763 mmHg 69%
    17:00 +10°C° 0 mm 3 m/s 763 mmHg 75%
    18:00 +8°C° 0 mm 2 m/s 763 mmHg 81%
    19:00 +8°C° 0 mm 3 m/s 763 mmHg 82%
    20:00 +7°C° 0 mm 3 m/s 763 mmHg 83%
    21:00 +7°C° 0 mm 3 m/s 763 mmHg 83%
    22:00 +7°C° 0 mm 3 m/s 762 mmHg 83%
    23:00 +5°C° 0 mm 3 m/s 762 mmHg 83%

    Amanhã, 17 Fevereiro, Domingo

    Tempo Temperatura Precipitação Vento Pressão Humidade
    00:00 +5°C° 0 mm 3 m/s 762 mmHg 83%
    01:00 +5°C° 0 mm 3 m/s 761 mmHg 83%
    02:00 +5°C° 0 mm 3 m/s 761 mmHg 84%
    03:00 +5°C° 0 mm 3 m/s 761 mmHg 84%
    04:00 +4°C° 0 mm 3 m/s 761 mmHg 82%
    05:00 +4°C° 0 mm 3 m/s 760 mmHg 80%
    06:00 +4°C° 0 mm 4 m/s 760 mmHg 78%
    07:00 +5°C° 0 mm 4 m/s 760 mmHg 73%
    08:00 +6°C° 0 mm 5 m/s 760 mmHg 68%
    09:00 +7°C° 0 mm 5 m/s 760 mmHg 62%
    10:00 +9°C° 0 mm 5 m/s 760 mmHg 58%
    11:00 +10°C° 0 mm 6 m/s 760 mmHg 54%
    12:00 +13°C° 0 mm 6 m/s 759 mmHg 50%
    13:00 +13°C° 0 mm 6 m/s 759 mmHg 51%
    14:00 +13°C° 0 mm 5 m/s 759 mmHg 52%
    15:00 +13°C° 0 mm 5 m/s 758 mmHg 52%
    16:00 +12°C° 0 mm 5 m/s 759 mmHg 58%
    17:00 +10°C° 0 mm 4 m/s 759 mmHg 63%
    18:00 +8°C° 0 mm 4 m/s 759 mmHg 69%
    19:00 +7°C° 0 mm 4 m/s 759 mmHg 70%
    20:00 +7°C° 0 mm 4 m/s 759 mmHg 71%
    21:00 +7°C° 0 mm 4 m/s 759 mmHg 72%
    22:00 +6°C° 0 mm 4 m/s 759 mmHg 72%
    23:00 +6°C° 0 mm 4 m/s 759 mmHg 73%

    Depois de amanhã, 18 Fevereiro, Segunda-feira

    Tempo Temperatura Precipitação Vento Pressão Humidade
    00:00 +6°C° 0 mm 4 m/s 759 mmHg 73%
    01:00 +6°C° 0 mm 4 m/s 759 mmHg 75%
    02:00 +5°C° 0 mm 4 m/s 758 mmHg 76%
    03:00 +5°C° 0 mm 4 m/s 758 mmHg 77%
    04:00 +5°C° 0 mm 4 m/s 758 mmHg 78%
    05:00 +5°C° 0 mm 3 m/s 758 mmHg 79%
    06:00 +4°C° 0 mm 3 m/s 758 mmHg 80%
    07:00 +5°C° 0 mm 4 m/s 758 mmHg 77%
    08:00 +6°C° 0 mm 4 m/s 758 mmHg 74%
    09:00 +7°C° 0 mm 4 m/s 758 mmHg 71%
    10:00 +8°C° 0 mm 4 m/s 758 mmHg 68%
    11:00 +11°C° 0 mm 4 m/s 758 mmHg 66%
    12:00 +12°C° 0 mm 4 m/s 757 mmHg 64%
    13:00 +12°C° 0 mm 4 m/s 757 mmHg 64%
    14:00 +12°C° 0 mm 4 m/s 756 mmHg 64%
    15:00 +13°C° 0 mm 4 m/s 756 mmHg 64%
    16:00 +11°C° 0 mm 4 m/s 756 mmHg 69%
    17:00 +10°C° 0 mm 4 m/s 756 mmHg 74%
    18:00 +8°C° 0 mm 4 m/s 756 mmHg 79%
    19:00 +7°C° 0 mm 4 m/s 756 mmHg 79%
    20:00 +7°C° 0 mm 4 m/s 756 mmHg 79%
    21:00 +7°C° 0 mm 4 m/s 756 mmHg 79%
    22:00 +7°C° 0 mm 4 m/s 756 mmHg 80%
    23:00 +7°C° 0 mm 4 m/s 756 mmHg 80%

    19 Fevereiro, Terça-feira

    Tempo Temperatura Precipitação Vento Pressão Humidade
    00:00 +6°C° 0 mm 4 m/s 756 mmHg 81%
    01:00 +6°C° 0.5 mm 4 m/s 756 mmHg 84%
    02:00 +6°C° 0.5 mm 4 m/s 756 mmHg 86%
    03:00 +6°C° 0.5 mm 4 m/s 755 mmHg 89%
    04:00 +7°C° 0.3 mm 3 m/s 756 mmHg 91%
    05:00 +7°C° 0.3 mm 3 m/s 756 mmHg 92%
    06:00 +7°C° 0.3 mm 3 m/s 756 mmHg 94%
    07:00 +7°C° 0 mm 3 m/s 757 mmHg 91%
    08:00 +7°C° 0 mm 4 m/s 757 mmHg 89%
    09:00 +7°C° 0 mm 5 m/s 758 mmHg 86%
    10:00 +7°C° 0 mm 5 m/s 758 mmHg 83%
    11:00 +7°C° 0 mm 5 m/s 759 mmHg 80%
    12:00 +8°C° 0 mm 4 m/s 759 mmHg 77%
    13:00 +8°C° 0 mm 4 m/s 759 mmHg 71%
    14:00 +10°C° 0 mm 4 m/s 759 mmHg 65%
    15:00 +10°C° 0 mm 4 m/s 759 mmHg 60%
    16:00 +9°C° 0 mm 3 m/s 759 mmHg 65%
    17:00 +8°C° 0 mm 3 m/s 759 mmHg 70%
    18:00 +7°C° 0 mm 2 m/s 760 mmHg 76%
    19:00 +7°C° 0 mm 2 m/s 760 mmHg 79%
    20:00 +5°C° 0 mm 3 m/s 760 mmHg 82%
    21:00 +5°C° 0 mm 3 m/s 760 mmHg 85%
    22:00 +5°C° 0 mm 3 m/s 760 mmHg 87%
    23:00 +4°C° 0 mm 3 m/s 760 mmHg 89%

    20 Fevereiro, Quarta-feira

    Tempo Temperatura Precipitação Vento Pressão Humidade
    00:00 +4°C° 0 mm 3 m/s 760 mmHg 90%
    01:00 +4°C° 0 mm 4 m/s 760 mmHg 91%
    02:00 +4°C° 0 mm 4 m/s 760 mmHg 91%
    03:00 +3°C° 0 mm 4 m/s 760 mmHg 91%
    04:00 +3°C° 0 mm 4 m/s 760 mmHg 91%
    05:00 +3°C° 0 mm 4 m/s 760 mmHg 91%
    06:00 +3°C° 0 mm 4 m/s 760 mmHg 91%
    07:00 +3°C° 0 mm 5 m/s 760 mmHg 88%
    08:00 +5°C° 0 mm 5 m/s 760 mmHg 84%
    09:00 +5°C° 0 mm 6 m/s 760 mmHg 81%
    10:00 +7°C° 0 mm 6 m/s 760 mmHg 77%
    11:00 +8°C° 0 mm 6 m/s 760 mmHg 73%
    12:00 +9°C° 0 mm 6 m/s 760 mmHg 69%
    13:00 +9°C° 0 mm 6 m/s 760 mmHg 68%
    14:00 +9°C° 0 mm 5 m/s 760 mmHg 67%
    15:00 +10°C° 0 mm 5 m/s 760 mmHg 66%
    16:00 +9°C° 0 mm 5 m/s 760 mmHg 71%
    17:00 +8°C° 0 mm 4 m/s 760 mmHg 75%
    18:00 +8°C° 0 mm 3 m/s 761 mmHg 80%
    19:00 +7°C° 0 mm 4 m/s 761 mmHg 81%
    20:00 +7°C° 0 mm 4 m/s 761 mmHg 83%
    21:00 +6°C° 0 mm 4 m/s 761 mmHg 84%
    22:00 +6°C° 0 mm 4 m/s 761 mmHg 86%
    23:00 +6°C° 0 mm 4 m/s 761 mmHg 87%

    21 Fevereiro, Quinta-feira

    Tempo Temperatura Precipitação Vento Pressão Humidade
    00:00 +6°C° 0 mm 4 m/s 761 mmHg 89%
    01:00 +5°C° 0 mm 4 m/s 761 mmHg 90%
    02:00 +5°C° 0 mm 3 m/s 762 mmHg 91%
    03:00 +5°C° 0 mm 3 m/s 762 mmHg 92%
    04:00 +5°C° 0 mm 4 m/s 762 mmHg 92%
    05:00 +5°C° 0 mm 4 m/s 762 mmHg 93%
    06:00 +4°C° 0 mm 4 m/s 762 mmHg 93%
    07:00 +5°C° 0 mm 4 m/s 763 mmHg 90%
    08:00 +6°C° 0 mm 4 m/s 763 mmHg 87%
    09:00 +7°C° 0 mm 4 m/s 763 mmHg 84%
    10:00 +8°C° 0 mm 4 m/s 763 mmHg 79%
    11:00 +11°C° 0 mm 4 m/s 763 mmHg 74%
    12:00 +12°C° 0 mm 4 m/s 763 mmHg 69%
    13:00 +12°C° 0 mm 4 m/s 763 mmHg 67%
    14:00 +13°C° 0 mm 3 m/s 763 mmHg 66%
    15:00 +13°C° 0 mm 3 m/s 763 mmHg 65%
    16:00 +13°C° 0 mm 2 m/s 763 mmHg 71%
    17:00 +10°C° 0 mm 2 m/s 763 mmHg 76%
    18:00 +10°C° 0 mm 1 m/s 764 mmHg 81%
    19:00 +10°C° 0 mm 1 m/s 764 mmHg 83%
    20:00 +9°C° 0 mm 1 m/s 764 mmHg 84%
    21:00 +9°C° 0 mm 1 m/s 764 mmHg 85%
    22:00 +8°C° 0 mm 1 m/s 765 mmHg 85%
    23:00 +8°C° 0 mm 1 m/s 765 mmHg 86%
    Mostrar mais